Location: Bachones
(48.2667°N, 15.1500°E)
Time: 11:44:44
(UTC+00:00)

Daily predictions for brighter satellites

Satellite Brightness Start Highest point End
(mag) Time Altitude Azimuth Time Altitude Azimuth Time Altitude Azimuth
GEOS 3 Rocket 3.6 19:02:34 10° NE 19:07:48 87° SE 19:12:57 10° SW
Cosmos 371 Rocket 3.5 19:04:12 10° NNW 19:09:00 74° WSW 19:13:48 10° SSE
Helios 1A Rocket 3.7 19:05:13 10° S 19:09:12 53° W 19:13:13 10° NNW
Cosmos 2322 Rocket 2.8 19:04:51 10° NNW 19:10:15 43° NE 19:15:35 10° SE
USA 276 2.7 19:14:47 10° W 19:17:50 46° SSW 19:20:53 10° SE
USA 234 4.5 19:14:52 10° ENE 19:20:57 42° N 19:27:01 10° WNW
SAR-Lupe-4 3.9 19:21:03 10° N 19:24:38 69° WNW 19:28:12 10° SSW
Cosmos 2219 Rocket 4.0 19:23:14 10° N 19:27:16 20° NE 19:31:16 10° E
Spot 2 Rocket 4.3 19:23:06 10° SE 19:27:44 36° ENE 19:32:22 10° N
Cosmos 1633 3.4 19:25:49 10° SSW 19:29:21 55° WNW 19:32:55 10° N
BREEZE-M DEB (TANK) 3.5 19:27:42 10° SW 19:31:12 57° SE 19:42:59 10° ENE
Cosmos 1680 Rocket 3.9 19:30:01 10° S 19:34:56 41° ESE 19:39:51 10° NE
Cosmos 1076 Rocket 4.2 19:32:12 10° SSW 19:36:29 59° WNW 19:40:49 10° N
Resurs 01 Rocket 1.7 19:32:27 10° SSE 19:36:54 82° WSW 19:41:23 10° NNW
SL-16 R/B 2.2 19:35:20 10° NNW 19:41:03 87° ENE 19:46:27 11° SSE
Cosmos 1151 Rocket 3.5 19:37:04 10° N 19:41:17 45° ENE 19:44:57 13° SSE
Terra 3.2 19:40:07 11° ESE 19:43:39 25° ENE 19:47:30 10° N
ATLAS 5 CENTAUR R/B 3.8 19:40:43 10° NNW 19:45:00 25° NNE 19:49:55 10° E
Meteor 2-3 Rocket 3.7 19:41:36 10° S 19:47:16 79° E 19:53:02 10° NNE
Cosmos 332 Rocket 4.4 19:42:45 10° NNW 19:47:33 55° WSW 19:52:20 10° S
SPOT 3 Rocket 3.6 19:42:24 10° SSE 19:47:38 84° WSW 19:52:53 10° NNW
NOSS 2-1 (E) 3.9 19:45:34 10° S 19:48:20 25° ESE 19:51:07 10° ENE
CZ-2C R/B 3.9 19:45:08 10° NNE 19:49:32 50° E 19:53:51 10° S
Cosmos 2237 4.4 19:45:21 10° NNW 19:51:04 65° ENE 19:55:45 15° SE
Cosmos 1933 3.7 19:48:23 10° NNW 19:52:25 66° W 19:56:24 10° S
Cosmos 1271 Rocket 3.0 19:49:44 10° NNW 19:53:44 74° W 19:57:43 10° S
NOSS 3-1 (C) 4.5 19:47:25 10° NW 19:54:27 54° NE 20:02:01 13° ESE
COSMOS 2428 4.3 19:50:09 10° N 19:54:46 24° NE 19:59:21 10° E
Cosmos 1328 Rocket 4.0 19:50:34 10° N 19:54:54 48° ENE 19:58:06 17° SE
Cosmos 1766 Rocket 3.8 19:50:48 10° SSE 19:54:58 48° E 19:59:11 10° NNE
Gbstr 26 Del rocket 3.5 19:52:05 10° WNW 19:55:35 39° SW 19:58:12 17° SSE
SPOT 5 3.2 19:57:34 17° SE 20:00:34 43° ENE 20:04:47 10° N
CZ-3B R/B 4.2 19:43:01 10° WNW 20:01:26 57° N 20:05:54 10° E
ARIANE 5 R/B 2.9 19:58:58 17° SE 20:02:15 54° ENE 20:06:36 10° N
JB-3 4.4 19:59:16 10° NNE 20:03:23 62° E 20:07:17 11° S
Cosmos 292 Rocket 4.4 20:01:02 10° NNW 20:05:35 42° ENE 20:08:41 19° ESE
Meteor 2-6 Rocket 4.3 20:00:37 10° N 20:05:56 55° ENE 20:09:47 18° SSE
Cosmos 1862 4.0 20:04:11 19° SSE 20:06:26 36° E 20:10:05 10° NNE
Cosmos 1782 2.9 20:04:21 10° NNW 20:08:23 75° W 20:11:43 14° S
Cosmos 1624 Rocket 4.0 20:07:11 10° NNW 20:12:25 77° ENE 20:16:05 20° SSE
Cosmos 2082 Rocket 4.4 20:09:11 10° WSW 20:14:03 29° NW 20:18:57 10° NNE
Cosmos 220 Rocket 4.1 20:11:14 10° NNW 20:15:36 76° WSW 20:18:36 20° SSE
ATLAS 3B R/B 4.4 20:14:05 10° WNW 20:19:51 27° WSW 20:25:47 10° SSW
Cosmos 2360 Rocket 2.2 20:14:27 10° NNW 20:20:08 82° ENE 20:23:55 22° SSE
Cosmos 1420 Rocket 4.2 20:15:35 10° NNW 20:20:54 63° ENE 20:24:12 23° SE
Cosmos 1174 3.3 20:22:29 10° NNW 20:25:28 59° NE 20:26:29 35° ESE
COSMOS 2487 4.3 20:26:57 16° E 20:26:57 16° E 20:28:31 10° ENE
USA 267 4.4 20:22:56 10° E 20:27:27 20° ESE 20:27:32 20° SE
NOSS 3-1 (A) 4.5 20:23:49 10° NW 20:30:54 56° NE 20:37:35 17° ESE
NOSS 2-1 (C) 2.7 20:29:10 10° SW 20:32:27 84° SE 20:35:51 10° NE
Cosmos 1500 Rocket 4.3 20:34:48 28° SE 20:36:16 36° E 20:40:22 10° NNE
Cosmos 2084 3.5 20:34:02 10° SW 20:38:06 74° NW 20:42:18 10° NE
COSMOS 2455 3.3 20:34:51 21° SSE 20:38:20 39° ESE 20:43:52 10° NE
Cosmos 1812 2.9 20:34:36 10° NNW 20:38:26 66° W 20:40:31 26° S
Cosmos 1833 4.2 20:33:29 10° SSW 20:39:11 64° ESE 20:44:54 10° NNE
GP-B 4.0 20:35:34 10° N 20:39:51 48° W 20:44:01 11° SSW
NOSS 2-1 (D) 2.8 20:36:55 10° SW 20:40:13 80° NW 20:43:37 10° NE
Meteor 1-27 Rocket 4.1 20:34:50 10° N 20:40:21 52° ENE 20:43:22 27° SE
Cosmos 2333 Rocket 2.4 20:35:39 10° NNW 20:41:17 62° ENE 20:44:24 27° SE
Cosmos 1452 Rocket 3.9 20:38:11 10° NNW 20:43:20 51° ENE 20:45:57 27° SE
ERS-1 Rocket 3.0 20:40:25 23° S 20:43:35 76° WSW 20:48:37 10° NNW
Meteor 2-16 Rocket 4.4 20:42:27 22° S 20:46:27 65° E 20:52:28 10° NNE
SL-27 R/B 2.6 20:44:41 18° SSW 20:47:13 77° WNW 20:50:50 10° NNE
Cosmos 2322 3.9 20:42:46 10° NNW 20:48:30 67° ENE 20:51:30 29° SE
H-2A R/B 4.0 20:45:44 10° NNE 20:49:43 40° E 20:50:38 35° SE
Cosmos 2056 Rocket 4.1 20:48:01 10° NNW 20:53:12 51° WSW 20:56:16 23° S
Cosmos 1408 Rocket 3.5 20:50:54 25° SSW 20:53:26 85° W 20:57:48 10° N
Cosmos 2237 Rocket 3.8 20:49:08 10° N 20:53:50 26° NE 20:57:41 13° E
Cosmos 2322 Rocket 3.3 20:49:07 10° NW 20:54:12 35° WSW 20:57:55 17° SSW
Cosmos 1743 Rocket 3.7 20:55:45 37° SSE 20:57:16 58° E 21:01:38 10° NNE
Sich 1 4.1 20:57:14 26° E 20:57:43 27° E 21:01:22 10° NNE
CZ-4B DEB 4.1 21:00:12 66° SSE 21:00:36 89° NNE 21:03:47 10° NNW
USA 234 4.0 20:56:59 10° E 21:03:15 50° NNE 21:09:32 10° NW
Meteor 1-10 Rocket 4.4 20:58:40 10° NNW 21:04:11 68° W 21:07:16 27° S
Gblst 52 Del rocket 4.5 21:01:09 10° WNW 21:07:13 89° NNE 21:11:50 22° ESE
IRIDIUM 104 4.4 21:04:58 10° N 21:10:09 62° E 21:12:02 38° SSE
Cosmos 2219 Rocket 2.1 21:06:28 10° NNW 21:12:06 84° ENE 21:14:26 37° SSE
BREEZE M DEB (TANK) 4.4 21:12:13 10° WSW 21:16:55 66° SSE 21:53:30 10° E
Cosmos 1515 Rocket 4.5 21:14:28 10° NNW 21:18:40 43° W 21:20:36 27° SW
IRIDIUM 114 4.3 21:14:03 10° N 21:19:18 74° E 21:21:09 41° SSE
Terra 2.5 21:19:00 28° SSW 21:21:08 47° W 21:25:45 10° NNW
SL-16 R/B 4.3 21:19:03 10° N 21:22:58 19° NE 21:26:51 10° E
Cosmos 2285 Rocket 3.9 21:17:11 10° NNW 21:23:32 88° ENE 21:26:17 37° SSE
Cosmos 2266 Rocket 4.0 21:19:57 25° SSW 21:23:48 79° W 21:30:06 10° N
SL-16 R/B 4.4 21:20:59 10° WNW 21:24:21 16° W 21:27:44 10° SW
Spot 4 4.5 21:23:58 35° ESE 21:25:23 45° ENE 21:30:00 10° N
Meteor 1-25 Rocket 4.5 21:23:50 38° SE 21:25:26 50° E 21:30:48 10° NNE
Cosmos 2315 Rocket 4.0 21:21:41 10° N 21:28:03 89° W 21:30:56 36° S
IRIDIUM 103 4.2 21:23:12 10° N 21:28:28 87° E 21:30:18 42° S
Cosmos 1515 3.9 21:26:12 10° N 21:29:54 51° ENE 21:30:04 51° E
ATLAS 5 CENTAUR R/B 2.3 21:24:52 10° NW 21:30:21 81° NE 21:33:05 36° SE
Cosmos 468 4.4 21:29:46 43° S 21:31:22 67° ESE 21:36:35 10° NNE
Cosmos 494 Rocket 4.0 21:32:48 47° SSE 21:33:52 56° ESE 21:38:53 10° NNE
Cosmos 2228 Rocket 3.1 21:29:48 10° NNW 21:34:14 73° W 21:35:17 50° SSW
Cosmos 1602 4.0 21:39:19 53° E 21:39:19 53° E 21:42:56 10° NNE
Okean 1 3.7 21:35:18 10° N 21:39:13 48° ENE 21:39:27 48° E
COSMOS 2428 2.7 21:33:57 10° NNW 21:39:39 75° WSW 21:41:31 44° S
Meteor 1-19 Rocket 4.3 21:39:03 10° N 21:44:39 65° ENE 21:46:15 45° SE
Cosmos 1707 Rocket 3.5 21:41:01 10° N 21:45:23 68° E 21:45:57 60° SE
NOSS 3-1 (C) 4.5 21:38:17 10° NW 21:45:34 52° WSW 21:49:24 32° S
Cosmos 1048 Rocket 3.9 21:48:39 40° SSW 21:50:32 84° WNW 21:55:42 10° NNE
Cosmos 1666 4.5 21:51:36 21° ENE 21:51:36 21° ENE 21:54:00 10° NE
ALOS 2 2.9 21:59:23 49° E 21:59:56 53° ENE 22:04:14 10° N
Cosmos 2219 4.2 22:00:29 30° ESE 22:00:41 30° ESE 22:05:39 10° NE
COSMOS 2487 3.8 22:00:10 31° W 22:00:48 33° WNW 22:03:56 10° N
USA 229 DEB 4.0 21:54:21 10° NW 22:01:34 61° WSW 22:04:27 39° S
USA 229 4.0 21:54:27 10° NW 22:01:40 62° WSW 22:04:33 39° S
Cosmos 1805 Rocket 4.2 22:02:11 40° SW 22:03:22 52° WNW 22:07:42 10° N
Cosmos 2360 Rocket 4.1 21:59:50 10° WNW 22:03:24 17° W 22:05:41 14° SW
Cosmos 1302 Rocket 4.2 21:58:50 10° NNW 22:04:01 60° ENE 22:05:21 45° ESE
Cosmos 2084 Rocket 3.3 22:04:56 10° NW 22:09:08 88° SW 22:09:17 83° SSE
Meteor 1-14 Rocket 4.4 22:09:13 47° SE 22:10:16 54° E 22:15:46 10° NNE
Nadezhda 1 Rocket 4.3 22:04:48 10° N 22:11:09 60° ENE 22:13:14 41° SE
CZ-4C R/B 4.0 22:04:58 10° NW 22:11:16 39° NNE 22:18:39 10° E
USA 267 3.2 22:04:47 10° ENE 22:11:19 66° SE 22:14:48 29° SSW
Cosmos 1980 3.6 22:10:23 10° NNW 22:16:05 86° ENE 22:17:31 53° SSE
NOSS 0 Rocket 4.0 22:11:01 10° NNW 22:17:13 69° WSW 22:18:54 48° S
Okean 1-7 4.2 22:15:20 10° N 22:19:07 30° ENE 22:19:30 30° E
NOSS 3-1 (A) 4.4 22:14:46 10° NW 22:22:03 51° WSW 22:25:00 37° S
COSMOS 2455 3.7 22:18:25 10° WSW 22:24:11 47° NW 22:30:01 10° NNE
Cosmos 2333 Rocket 3.6 22:20:41 10° NW 22:25:05 24° WSW 22:26:24 22° WSW
Lacrosse 5 1.9 22:25:49 58° ESE 22:25:49 58° ESE 22:30:32 10° ENE
NOSS 2-2 (D) 4.3 22:25:48 10° NW 22:31:01 88° NE 22:33:24 43° SE
BREEZE-M R/B 2.4 22:31:56 83° SSW 22:32:00 84° SSE 22:37:17 10° E
Cosmos 2297 Rocket 2.2 22:32:07 56° SSE 22:32:56 63° ESE 22:38:33 10° NNE
Cosmos 1500 3.5 22:34:31 60° WNW 22:34:31 60° WNW 22:38:08 10° N
Sich 1 4.4 22:34:10 28° WSW 22:35:17 32° WNW 22:39:11 10° N
Cosmos 2237 Rocket 2.2 22:32:46 10° NNW 22:38:26 71° WSW 22:39:29 57° S
Thor Agena Rocket 4.2 22:34:01 10° NNE 22:38:43 38° E 22:39:01 37° ESE
Cosmos 1470 Rocket 3.4 22:43:07 89° WNW 22:43:07 89° WNW 22:47:29 10° N
Cosmos 1633 Rocket 3.5 22:44:04 49° W 22:44:28 51° WNW 22:48:45 10° N
Cosmos 2227 Rocket 2.2 22:44:30 55° SE 22:45:12 59° ESE 22:50:46 10° NE
USA 234 3.1 22:42:59 35° SE 22:46:02 83° SW 22:52:39 10° NW
Cosmos 1933 Rocket 3.6 22:49:29 70° E 22:49:29 70° E 22:53:56 10° NNE
Cosmos 2242 Rocket 3.6 22:49:12 10° N 22:53:37 69° ENE 22:53:45 68° E
Cosmos 1340 Rocket 3.0 22:54:24 63° NE 22:54:24 63° NE 22:57:51 10° NNE
Cosmos 2219 Rocket 4.0 22:51:55 10° WNW 22:55:17 17° W 22:56:08 16° WSW
Cosmos 1378 3.6 22:52:44 10° N 22:55:52 57° NNE 22:55:52 57° NNE
Cosmos 2263 Rocket 4.1 22:57:34 15° ESE 22:58:13 15° E 23:01:23 10° ENE
Cosmos 44 4.5 22:59:52 10° NNW 23:04:56 42° NE 23:07:58 21° ESE
Cosmos 2181 Rocket 4.3 22:59:42 10° N 23:05:57 58° ENE 23:08:02 40° SE
SL-16 R/B 2.2 23:02:22 10° NNW 23:08:05 76° ENE 23:09:38 49° SE
Cosmos 2251 Rocket 4.2 23:08:14 39° ESE 23:08:38 39° ESE 23:13:34 10° NE
ATLAS 5 CENTAUR R/B 3.7 23:10:09 10° WNW 23:14:35 24° WSW 23:14:35 24° WSW
Okean 3 3.5 23:11:43 10° N 23:16:00 68° E 23:16:01 68° E
Intercosmos 25 Rocket 3.5 23:24:02 78° SSE 23:24:19 85° E 23:30:14 10° N
Cosmos 1743 3.5 23:25:44 44° ENE 23:25:44 44° ENE 23:28:57 10° NNE
Cosmos 1666 4.0 23:26:25 31° WNW 23:26:25 31° WNW 23:29:49 10° N
Meteor 1-11 Rocket 3.6 23:25:58 60° S 23:27:01 88° ESE 23:32:35 10° NNE
Helios 1A 4.4 23:27:02 28° E 23:28:07 32° ENE 23:31:52 10° N
Cosmos 1703 Rocket 4.0 23:25:32 10° NNW 23:29:38 50° W 23:29:38 50° W
Cosmos 2221 Rocket 4.5 23:26:56 10° N 23:31:17 42° ENE 23:32:13 37° ESE
ARGOS Delta rocket 4.3 23:27:57 10° NNE 23:32:19 42° E 23:32:38 41° ESE
Cosmos 1709 Rocket 4.1 23:30:39 48° SSW 23:32:32 73° W 23:38:57 10° N
PSLV R/B 3.7 23:28:49 10° NNE 23:33:37 80° WNW 23:34:07 70° SW
Cosmos 1992 Rocket 4.1 23:31:12 10° NNW 23:36:19 56° WSW 23:36:41 54° SW
ASTEX 1 3.8 23:35:16 45° ESE 23:36:20 55° ENE 23:41:09 10° N
Cosmos 909 Rocket 4.3 23:36:15 39° SW 23:39:05 81° NW 23:47:07 10° NE
Cosmos 1943 4.4 23:34:42 10° NNW 23:40:05 40° NE 23:44:45 13° ESE
Cosmos 1733 Rocket 4.0 23:41:40 36° ESE 23:42:09 38° E 23:46:16 10° NNE
SL-8 R/B 4.0 23:43:02 50° ESE 23:43:02 50° ESE 23:46:56 10° E
CZ-2D R/B 3.6 23:39:15 10° NE 23:43:45 26° E 23:45:32 22° ESE
Cosmos 407 Rocket 4.4 23:43:30 33° ESE 23:44:22 35° ESE 23:49:06 10° NE
Cosmos 2219 3.8 23:42:22 33° WSW 23:44:36 51° NW 23:50:14 10° NNE
Cosmos 1066 Rocket 4.5 23:41:46 10° NNW 23:47:32 57° W 23:48:43 48° SW
YAOGAN 11 4.3 23:53:53 55° SE 23:54:42 69° ENE 23:59:11 10° N
